• In Czech Republic
  • List of Countries
  • For 7 days
  • Water Temperature
  • Satellite Maps
  • Weather Map
  • Weather Widgets
  • user-avatar
    Login

    Hourly Weather Maasmechelen

    Today, 12 December, Tuesday

    Time Temperature Precipitation Wind Pressure Humidity
    00:00 -2°C° 0.3 mm 6 mps 734 mmHg 93%
    01:00 -1°C° 0.3 mm 6 mps 736 mmHg 92%
    02:00 -1°C° 0.3 mm 6 mps 738 mmHg 91%
    03:00 -1°C° 0.3 mm 6 mps 740 mmHg 90%
    04:00 0°C° 0.2 mm 5 mps 741 mmHg 90%
    05:00 0°C° 0.2 mm 5 mps 742 mmHg 89%
    06:00 -1°C° 0.2 mm 5 mps 744 mmHg 89%
    07:00 0°C° 0.1 mm 5 mps 745 mmHg 90%
    08:00 0°C° 0.1 mm 5 mps 746 mmHg 90%
    09:00 0°C° 0.1 mm 5 mps 747 mmHg 91%
    10:00 0°C° 0.1 mm 5 mps 748 mmHg 91%
    11:00 0°C° 0.1 mm 5 mps 749 mmHg 91%
    12:00 +1°C° 0.1 mm 5 mps 750 mmHg 92%
    13:00 0°C° 0 mm 5 mps 750 mmHg 92%
    14:00 0°C° 0 mm 5 mps 751 mmHg 92%
    15:00 0°C° 0 mm 4 mps 752 mmHg 92%
    16:00 0°C° 0 mm 4 mps 752 mmHg 92%
    17:00 -1°C° 0 mm 4 mps 753 mmHg 92%
    18:00 -1°C° 0 mm 4 mps 754 mmHg 92%
    19:00 -1°C° 0 mm 4 mps 754 mmHg 91%
    20:00 -1°C° 0 mm 4 mps 754 mmHg 91%
    21:00 -1°C° 0 mm 4 mps 755 mmHg 90%
    22:00 -1°C° 0 mm 4 mps 754 mmHg 90%
    23:00 -1°C° 0 mm 5 mps 754 mmHg 89%

    Tomorrow, 13 December, Wednesday

    Time Temperature Precipitation Wind Pressure Humidity
    00:00 -1°C° 0 mm 5 mps 754 mmHg 89%
    01:00 -2°C° 0 mm 6 mps 754 mmHg 88%
    02:00 -1°C° 0 mm 6 mps 753 mmHg 87%
    03:00 -1°C° 0 mm 6 mps 753 mmHg 86%
    04:00 0°C° 0 mm 7 mps 752 mmHg 86%
    05:00 0°C° 0 mm 7 mps 751 mmHg 85%
    06:00 0°C° 0 mm 8 mps 751 mmHg 85%
    07:00 0°C° 0.7 mm 8 mps 750 mmHg 85%
    08:00 +1°C° 0.7 mm 9 mps 749 mmHg 84%
    09:00 +1°C° 0.7 mm 9 mps 748 mmHg 84%
    10:00 +2°C° 1 mm 9 mps 747 mmHg 85%
    11:00 +2°C° 1 mm 9 mps 747 mmHg 85%
    12:00 +2°C° 1 mm 9 mps 746 mmHg 85%
    13:00 +2°C° 0.5 mm 8 mps 745 mmHg 87%
    14:00 +3°C° 0.5 mm 7 mps 745 mmHg 88%
    15:00 +4°C° 0.5 mm 7 mps 744 mmHg 90%
    16:00 +4°C° 0.3 mm 7 mps 743 mmHg 89%
    17:00 +5°C° 0.3 mm 8 mps 742 mmHg 89%
    18:00 +5°C° 0.3 mm 8 mps 741 mmHg 88%
    19:00 +5°C° 1.1 mm 8 mps 741 mmHg 88%
    20:00 +5°C° 1.1 mm 9 mps 741 mmHg 88%
    21:00 +5°C° 1.1 mm 9 mps 740 mmHg 88%
    22:00 +4°C° 0.4 mm 8 mps 741 mmHg 85%
    23:00 +3°C° 0.4 mm 7 mps 741 mmHg 82%

    Day after tomorrow, 14 December, Thursday

    Time Temperature Precipitation Wind Pressure Humidity
    00:00 +2°C° 0.4 mm 6 mps 741 mmHg 79%
    01:00 +2°C° 0.6 mm 6 mps 742 mmHg 77%
    02:00 +2°C° 0.6 mm 7 mps 742 mmHg 75%
    03:00 +2°C° 0.6 mm 7 mps 742 mmHg 73%
    04:00 0°C° 0 mm 7 mps 743 mmHg 72%
    05:00 +1°C° 0 mm 6 mps 743 mmHg 72%
    06:00 -1°C° 0 mm 6 mps 744 mmHg 72%
    07:00 -1°C° 0 mm 6 mps 744 mmHg 74%
    08:00 +1°C° 0 mm 6 mps 743 mmHg 75%
    09:00 0°C° 0 mm 7 mps 743 mmHg 77%
    10:00 +2°C° 0.4 mm 6 mps 742 mmHg 79%
    11:00 +2°C° 0.4 mm 6 mps 741 mmHg 81%
    12:00 +3°C° 0.4 mm 5 mps 741 mmHg 83%
    13:00 +3°C° 0.6 mm 5 mps 740 mmHg 85%
    14:00 +3°C° 0.6 mm 4 mps 738 mmHg 88%
    15:00 +3°C° 0.6 mm 3 mps 737 mmHg 90%
    16:00 +3°C° 1.5 mm 4 mps 737 mmHg 89%
    17:00 +3°C° 1.5 mm 4 mps 737 mmHg 87%
    18:00 +1°C° 1.5 mm 4 mps 737 mmHg 86%
    19:00 +1°C° 0.2 mm 5 mps 738 mmHg 84%
    20:00 +1°C° 0.2 mm 5 mps 738 mmHg 83%
    21:00 +1°C° 0.2 mm 5 mps 739 mmHg 82%
    22:00 0°C° 0 mm 5 mps 739 mmHg 82%
    23:00 0°C° 0 mm 5 mps 740 mmHg 82%

    15 December, Friday

    Time Temperature Precipitation Wind Pressure Humidity
    00:00 -1°C° 0 mm 5 mps 740 mmHg 82%
    01:00 0°C° 0.3 mm 5 mps 740 mmHg 83%
    02:00 -1°C° 0.3 mm 6 mps 739 mmHg 83%
    03:00 +1°C° 0.3 mm 6 mps 739 mmHg 84%
    04:00 0°C° 0.2 mm 7 mps 739 mmHg 84%
    05:00 0°C° 0.2 mm 7 mps 738 mmHg 84%
    06:00 0°C° 0.2 mm 7 mps 738 mmHg 85%
    07:00 0°C° 0.3 mm 7 mps 738 mmHg 85%
    08:00 +1°C° 0.3 mm 6 mps 738 mmHg 86%
    09:00 +1°C° 0.3 mm 6 mps 738 mmHg 87%
    10:00 +2°C° 0.1 mm 6 mps 738 mmHg 87%
    11:00 +2°C° 0.1 mm 5 mps 738 mmHg 87%
    12:00 +2°C° 0.1 mm 5 mps 738 mmHg 87%
    13:00 +3°C° 0.1 mm 4 mps 738 mmHg 87%
    14:00 +3°C° 0.1 mm 4 mps 739 mmHg 87%
    15:00 +3°C° 0.1 mm 3 mps 739 mmHg 87%
    16:00 +2°C° 0 mm 3 mps 739 mmHg 89%
    17:00 +1°C° 0 mm 3 mps 740 mmHg 90%
    18:00 +1°C° 0 mm 3 mps 741 mmHg 91%
    19:00 0°C° 0 mm 3 mps 742 mmHg 92%
    20:00 0°C° 0 mm 3 mps 742 mmHg 93%
    21:00 +1°C° 0 mm 2 mps 743 mmHg 94%
    22:00 +1°C° 0 mm 2 mps 744 mmHg 94%
    23:00 +1°C° 0 mm 2 mps 744 mmHg 95%

    16 December, Saturday

    Time Temperature Precipitation Wind Pressure Humidity
    00:00 +2°C° 0 mm 2 mps 745 mmHg 96%
    01:00 +1°C° 0 mm 2 mps 746 mmHg 96%
    02:00 +1°C° 0 mm 2 mps 746 mmHg 95%
    03:00 +1°C° 0 mm 2 mps 747 mmHg 95%
    04:00 0°C° 0.1 mm 3 mps 747 mmHg 95%
    05:00 0°C° 0.1 mm 3 mps 748 mmHg 95%
    06:00 0°C° 0.1 mm 3 mps 748 mmHg 95%
    07:00 +1°C° 0.1 mm 3 mps 749 mmHg 95%
    08:00 +1°C° 0.1 mm 3 mps 749 mmHg 95%
    09:00 +2°C° 0.1 mm 3 mps 750 mmHg 95%
    10:00 +2°C° 0.1 mm 3 mps 750 mmHg 93%
    11:00 +3°C° 0.1 mm 4 mps 750 mmHg 91%
    12:00 +3°C° 0.1 mm 4 mps 751 mmHg 89%
    13:00 +3°C° 0.2 mm 4 mps 751 mmHg 88%
    14:00 +3°C° 0.2 mm 4 mps 751 mmHg 87%
    15:00 +3°C° 0.2 mm 4 mps 751 mmHg 87%
    16:00 +1°C° 0.2 mm 4 mps 752 mmHg 87%
    17:00 +1°C° 0.2 mm 4 mps 752 mmHg 88%
    18:00 +1°C° 0.2 mm 4 mps 752 mmHg 88%
    19:00 0°C° 0 mm 4 mps 753 mmHg 88%
    20:00 -1°C° 0 mm 4 mps 753 mmHg 88%
    21:00 -1°C° 0 mm 4 mps 753 mmHg 88%
    22:00 -1°C° 0.3 mm 4 mps 753 mmHg 89%
    23:00 -1°C° 0.3 mm 5 mps 753 mmHg 89%

    17 December, Sunday

    Time Temperature Precipitation Wind Pressure Humidity
    00:00 0°C° 0.3 mm 5 mps 753 mmHg 90%
    01:00 0°C° 0.5 mm 5 mps 753 mmHg 91%
    02:00 0°C° 0.5 mm 5 mps 753 mmHg 91%
    03:00 0°C° 0.5 mm 4 mps 753 mmHg 91%
    04:00 0°C° 0.7 mm 4 mps 753 mmHg 92%
    05:00 0°C° 0.7 mm 4 mps 753 mmHg 93%
    06:00 +1°C° 0.7 mm 3 mps 753 mmHg 94%
    07:00 +1°C° 0.2 mm 3 mps 753 mmHg 94%
    08:00 +1°C° 0.2 mm 3 mps 753 mmHg 94%
    09:00 0°C° 0.2 mm 3 mps 754 mmHg 94%
    10:00 +1°C° 0 mm 3 mps 754 mmHg 91%
    11:00 +1°C° 0 mm 3 mps 754 mmHg 89%
    12:00 +2°C° 0 mm 3 mps 754 mmHg 87%
    13:00 +2°C° 0 mm 3 mps 754 mmHg 88%
    14:00 +1°C° 0 mm 3 mps 754 mmHg 89%
    15:00 +1°C° 0 mm 3 mps 755 mmHg 90%
    16:00 0°C° 0 mm 3 mps 755 mmHg 91%
    17:00 0°C° 0 mm 3 mps 756 mmHg 91%
    18:00 -1°C° 0 mm 3 mps 756 mmHg 92%
    19:00 -1°C° 0 mm 3 mps 756 mmHg 93%
    20:00 -1°C° 0 mm 3 mps 757 mmHg 93%
    21:00 -1°C° 0 mm 2 mps 757 mmHg 93%
    22:00 -2°C° 0 mm 2 mps 757 mmHg 93%
    23:00 -2°C° 0 mm 2 mps 757 mmHg 93%
    Show more